Location: Lenna
(45.9333°N, 9.6667°E)
Time: 18:31:06
(UTC+00:00)

Daily predictions for brighter satellites

Satellite Brightness Start Highest point End
(mag) Time Altitude Azimuth Time Altitude Azimuth Time Altitude Azimuth
Cosmos 2219 Rocket 2.2 16:06:47 10° SSW 16:12:27 83° ESE 16:18:08 10° NNE
Cosmos 2221 2.6 16:10:42 10° S 16:14:58 58° E 16:19:14 10° NNE
CZ-4B R/B 3.3 16:10:43 10° SE 16:15:53 52° ENE 16:21:02 10° N
Cosmos 1500 Rocket 3.8 16:12:29 10° N 16:16:45 49° ENE 16:21:01 10° SSE
Abrixas rocket 1.7 16:14:09 10° WNW 16:16:56 78° NNE 16:19:42 10° ESE
Cosmos 1939 Rocket 4.3 16:15:33 10° E 16:17:55 16° ENE 16:20:16 10° NNE
SL-16 R/B 4.2 16:13:56 10° W 16:18:08 21° NW 16:22:22 10° N
NOAA 12 4.3 16:14:40 10° SE 16:19:49 52° ENE 16:24:58 10° N
ERS-2 3.7 16:17:39 10° NE 16:20:08 17° E 16:22:37 10° SE
Cosmos 2237 Rocket 2.9 16:15:35 10° SSE 16:20:31 33° ESE 16:25:30 10° NE
ISS -2.6 16:20:06 10° SSW 16:23:06 30° SE 16:26:06 10° ENE
Cosmos 1869 3.6 16:19:49 10° SSW 16:23:50 72° W 16:27:56 10° N
USA 267 3.6 16:20:29 10° E 16:26:39 48° NNE 16:32:51 10° NW
Cosmos 2322 4.3 16:23:00 10° SW 16:28:34 58° WNW 16:34:11 10° NNE
YAOGAN 1 4.4 16:27:19 10° ENE 16:28:39 11° ENE 16:30:01 10° NE
Cosmos 540 Rocket 3.8 16:23:53 10° SSW 16:28:59 67° WNW 16:34:07 10° NNE
CZ-4B R/B 2.6 16:27:19 10° NE 16:29:41 20° E 16:32:03 10° SE
Cosmos 2369 Rocket 4.0 16:31:09 10° NNE 16:32:58 11° NNE 16:34:48 10° NE
Okean-O 4.2 16:31:13 10° E 16:33:47 15° ENE 16:36:22 10° NNE
AQUARIUS 4.2 16:29:41 10° SSE 16:34:06 60° ENE 16:38:33 10° N
NOSS 2-1 (E) 4.3 16:29:41 10° NW 16:34:51 77° NE 16:42:12 10° SE
Meteor 2-2 Rocket 4.3 16:29:08 10° S 16:35:06 81° E 16:41:01 10° NNE
Cosmos 841 Rocket 4.1 16:32:08 10° SW 16:37:18 60° WNW 16:42:29 10° NNE
COSMO-SKYMED 1 3.8 16:34:31 10° NE 16:37:52 21° E 16:41:11 10° SE
Cosmos 1980 4.0 16:32:52 10° S 16:38:19 49° ESE 16:43:47 10° NE
CORIOLIS 4.1 16:33:04 10° SSE 16:38:24 66° ENE 16:43:49 10° N
Cosmos 1743 Rocket 3.6 16:34:13 10° N 16:38:43 85° E 16:43:11 10° S
Envisat 3.4 16:34:13 10° S 16:39:16 68° WSW 16:44:21 10° NNW
H-2A R/B 3.2 16:37:51 10° S 16:42:11 60° WSW 16:46:23 10° NNW
H-2A R/B 3.5 16:42:58 11° E 16:45:50 17° ENE 16:49:01 10° NNE
Okean O Rocket 1.5 16:42:13 10° SSE 16:46:33 82° ENE 16:50:57 10° NNW
Nadezhda 1 Rocket 4.0 16:40:41 10° S 16:46:58 76° E 16:53:23 10° NNE
Sich 1 3.4 16:46:24 10° N 16:50:36 43° ENE 16:54:46 10° SSE
Cosmos 1842 Rocket 4.4 16:46:42 10° SSW 16:50:56 53° WNW 16:55:12 10° N
Cosmos 2292 4.2 16:50:21 10° S 16:53:22 75° E 16:56:52 10° NNE
Cosmos 1933 4.5 16:50:44 10° SE 16:53:56 23° E 16:55:34 18° NE
Cosmos 405 Rocket 3.0 16:51:05 10° NNW 16:54:58 71° W 16:58:54 10° S
Cosmos 2297 4.4 16:52:29 10° N 16:57:32 32° NE 17:02:17 11° ESE
Cosmos 2154 Rocket 4.1 16:51:51 10° N 16:58:13 87° W 17:04:34 10° S
Cosmos 1805 Rocket 3.5 16:54:33 10° N 16:59:01 70° E 17:03:27 10° SSE
YAOGAN 6 4.1 16:56:07 10° S 16:59:35 40° W 17:03:03 10° NNW
Cosmos 962 Rocket 4.5 16:56:24 10° N 17:02:41 63° E 17:08:50 10° SSE
Cosmos 1666 Rocket 4.0 17:00:53 10° N 17:05:01 39° ENE 17:09:10 10° SE
SMAP 3.7 17:00:45 10° S 17:05:21 60° W 17:09:58 10° NNW
Cosmos 2341 Rocket 4.0 16:59:23 10° N 17:05:35 60° ENE 17:11:49 10° SSE
Helios 1A Rocket 3.8 17:03:21 13° ESE 17:06:14 27° ENE 17:09:38 10° N
Cosmos 1943 Rocket 3.2 17:02:11 10° N 17:06:36 23° NE 17:07:55 21° ENE
USA 281 3.4 17:00:28 10° SE 17:06:43 49° NE 17:13:00 10° NNW
SL-16 R/B 3.0 17:02:52 10° SSE 17:07:39 29° ESE 17:09:55 22° ENE
Cosmos 1151 Rocket 3.8 17:05:11 10° SSE 17:08:50 28° E 17:09:50 25° ENE
Cosmos 1328 Rocket 4.4 17:07:59 10° SE 17:11:35 26° E 17:11:47 26° E
ARGOS 4.4 17:15:45 21° NE 17:15:45 21° NE 17:19:11 10° NNE
MOS 1 Rocket 4.4 17:14:13 22° NE 17:16:27 29° E 17:21:08 10° SSE
NOSS 0 Rocket 4.1 17:12:02 10° SW 17:18:16 74° WNW 17:24:32 10° NNE
Feng Yun 1-1 Rocket 4.2 17:12:49 10° SSE 17:18:39 80° ENE 17:24:21 10° NNW
Cosmos 1606 2.6 17:15:20 10° S 17:19:13 78° E 17:23:04 10° NNE
Cosmos 389 Rocket 2.2 17:15:53 10° S 17:19:18 71° E 17:21:16 24° NNE
Cosmos 836 Rocket 4.4 17:14:55 10° SSW 17:20:10 78° ESE 17:25:00 13° NNE
CZ-2C R/B 3.3 17:15:32 10° SE 17:20:22 41° ENE 17:24:59 10° N
CREW DRAGON DEMO-1 DEB 3.5 17:17:39 10° NW 17:20:28 37° NNE 17:20:28 37° NNE
Cosmos 2285 Rocket 4.3 17:14:52 10° NNW 17:21:01 45° ENE 17:27:04 10° SE
Cosmos 2333 Rocket 3.8 17:16:43 10° WSW 17:21:42 31° NW 17:26:42 10° N
H-2A R/B 3.7 17:21:17 10° N 17:24:58 31° WNW 17:28:41 10° SW
Cosmos 1867 3.8 17:20:04 10° S 17:25:16 48° ESE 17:27:32 30° ENE
SKYMED 2 3.5 17:22:23 13° NNE 17:26:12 65° ESE 17:30:30 10° S
Meteor 1-20 Rocket 4.3 17:21:01 10° N 17:26:50 60° ENE 17:32:35 10° SSE
COSMOS 2428 4.1 17:21:39 10° WSW 17:26:53 35° NW 17:32:07 10° NNE
Cosmos 1818 4.2 17:27:28 10° NW 17:32:49 57° WSW 17:38:08 10° SSE
SL-8 Rocket 3.9 17:27:19 10° N 17:33:33 73° E 17:39:48 10° SSE
Cosmos 864 Rocket 4.5 17:27:46 10° N 17:34:01 59° ENE 17:40:12 10° SSE
Lacrosse 5 rocket 3.0 17:31:44 10° S 17:33:15 17° SSE 17:33:15 17° SSE
Cosmos 2278 Rocket 3.4 17:30:28 10° NW 17:35:48 43° WSW 17:41:07 10° S
USA 215 3.3 17:32:16 24° NE 17:36:31 81° NW 17:43:04 10° WSW
Cosmos 1633 Rocket 2.9 17:32:21 10° N 17:36:45 69° E 17:41:05 10° SSE
Cosmos 2181 Rocket 4.0 17:30:44 10° S 17:37:08 71° E 17:43:29 10° NNE
CZ-4 R/B 1.3 17:37:52 55° ENE 17:37:54 55° ENE 17:41:48 10° N
EO 1 Delta rocket 4.3 17:33:31 10° NNE 17:38:41 64° E 17:45:04 10° S
SAR-Lupe-4 3.5 17:40:59 40° N 17:42:11 83° WNW 17:45:46 10° SSW
Meteor 1-25 Rocket 4.1 17:37:30 10° N 17:43:07 76° ENE 17:48:47 10° SSE
Cosmos 1959 Rocket 4.4 17:36:47 10° N 17:43:09 72° E 17:49:30 10° SSE
CZ-2D R/B 3.2 17:41:44 10° S 17:45:32 82° WSW 17:49:23 10° NNW
BREEZE-M DEB (TANK) 3.9 17:47:38 10° WSW 17:48:48 26° WSW 17:48:48 26° WSW
IRS-1C Rocket 4.3 17:45:44 10° S 17:50:59 71° WSW 17:56:17 10° NNW
Abrixas rocket 4.1 17:49:29 10° W 17:51:40 21° SW 17:51:40 21° SW
Cosmos 1689 Rocket 4.0 17:53:49 23° SSW 17:53:49 23° SSW 17:55:05 10° SSW
Cosmos 1939 Rocket 3.8 17:48:45 10° S 17:52:28 47° W 17:56:14 10° NNW
CSL-04 Debris 4.2 17:51:54 42° ESE 17:53:22 54° ENE 17:58:43 10° N
ERS-2 3.6 17:50:53 13° N 17:53:48 36° WNW 17:57:10 10° SW
Cosmos 44 3.5 17:49:35 10° NNW 17:54:49 60° NE 17:55:25 56° E
DEBRIS 3.9 17:40:41 10° W 17:55:04 67° N 17:56:23 49° ENE
Cosmos 2219 Rocket 4.4 17:53:00 10° W 17:57:08 20° NW 18:01:15 10° N
SL-08 R/B 4.4 17:53:03 10° N 17:59:10 59° ENE 18:05:10 10° SSE
ISS -2.6 17:56:29 10° W 17:59:05 43° WNW 17:59:05 43° WNW
CZ-4B R/B 3.8 18:00:04 13° NNW 18:01:51 20° WNW 18:04:11 10° WSW
YAOGAN 1 2.4 18:03:52 82° S 18:04:04 89° SW 18:08:26 10° NNW
Cosmos 2237 Rocket 3.3 17:59:09 10° SW 18:04:28 42° NW 18:08:37 16° N
USA 267 3.3 18:05:51 29° SE 18:09:28 74° SW 18:16:01 10° NW
Okean-O 2.9 18:05:22 10° S 18:09:45 66° WSW 18:14:11 10° NNW
COSMO-SKYMED 1 3.8 18:10:59 15° N 18:14:10 40° WNW 18:18:14 10° SW
Cosmos 2218 Rocket 4.3 18:11:08 10° NNW 18:17:13 64° W 18:23:16 10° S
CSL-04 Rocket 3.5 18:18:44 76° NNE 18:18:44 76° NNE 18:23:46 10° NNW
Cosmos 2369 Rocket 3.1 18:13:03 10° NNW 18:16:39 34° N 18:16:39 34° N
H-2A R/B 2.1 18:23:35 59° S 18:24:38 82° WSW 18:29:54 10° NNW
Meteor 1-14 Rocket 4.4 18:30:07 10° NNW 18:36:01 75° W 18:38:09 42° S
Cosmos 773 Rocket 4.4 18:32:17 10° SSW 18:36:41 59° WSW 18:36:41 59° WSW
Cosmos 1943 Rocket 2.8 18:45:20 10° NNW 18:49:30 49° NW 18:49:30 49° NW
USA 281 4.5 18:45:20 10° S 18:51:20 37° WSW 18:57:22 10° NW
SL-16 R/B 3.0 18:46:03 10° SW 18:51:31 48° WNW 18:51:51 47° NW
ARGOS 4.4 18:57:16 34° NNW 18:57:16 34° NNW 19:00:20 10° NNW
CZ-4 R/B 4.5 19:13:54 13° W 19:13:54 13° W 19:15:10 10° WNW
USA 215 4.2 19:19:37 39° NNW 19:19:37 39° NNW 19:25:04 10° W
